Location: Street
(51.1247°N, 2.7429°W)
Time: 06:02:22
(UTC+01:00)

X-37B - Pass Details

Date: 07 August 2021
Orbit: 381 x 393 km, 45.0° (Epoch: 29 August)

Event Time Altitude Azimuth Distance (km) Brightness Sun altitude
Exits shadow 03:33:16 18° 145° (SE) 1,016 2.5 -16.2°
Drops below altitude 10° 03:34:55 10° 115° (ESE) 1,397 3.5 -16.1°
Sets 03:37:20 0° 97° (E) 2,252 4.8 -15.8°
